Location: Anton
(37.3520°N, 87.3947°W)
Time: 21:28:01
(UTC+00:00)

N. Korean satellite - Pass Details

Date: 06 December 2022
Orbit: 407 x 442 km, 97.3° (Epoch: 05 February)

Event Time Altitude Azimuth Distance (km) Brightness Sun altitude
Rises 11:31:13 0° 2° (N) 2,502 10.0 -15.2°
Reaches altitude 10° 11:33:23 10° 354° (N) 1,615 9.0 -14.8°
Maximum altitude 11:36:35 36° 286° (WNW) 740 6.9 -14.2°
Drops below altitude 10° 11:39:43 10° 219° (SW) 1,576 8.9 -13.6°
Sets 11:41:49 0° 210° (SSW) 2,431 10.0 -13.2°
